[[{"header":{"parameterUnit":"m.s-1","parameterCategory":1,"la1":30.2991,"la2":30.254,"lo1":-89.0895,"lo2":-89.0444,"dy":0.0017,"dx":0.0017,"nx":28,"ny":28,"refTime":"2024-10-05T21:00:00:Z","depth":0,"parameterNumber":2,"parameterNumberName":"U-component_of_WINDS"},"data":[0,0,0,0,0,0,0,0,0,0,0,0,0,0,0,0,0,0,0,0,0,0,0,0,0,0,0,0,0,0,0,0,0,0,0,0,0,0,0,0,0,0,0,0,0,0,0,0,0,0,0,0,0,0,0,0,0,0,-4.6511,-4.6511,0,-4.6508,-4.6508,-4.6508,-4.6413,-4.641,-4.6408,-4.6406,-4.6405,-4.6407,-4.6409,0,0,0,0,0,0,0,0,0,0,0,0,0,-4.6439,-4.6441,-4.6511,-4.6511,-4.6511,-4.6508,-4.6508,-4.6508,-4.6413,-4.641,-4.6407,-4.6404,-4.6404,-4.6407,-4.641,0,0,0,0,0,0,0,0,0,0,0,0,0,-4.6457,-4.6442,-4.6511,-4.6463,-4.6459,-4.6508,-4.6508,-4.6508,-4.6414,-4.641,-4.6406,-4.6403,-4.6403,-4.6407,-4.641,-4.6505,0,0,-4.6421,-4.6422,0,0,0,0,0,0,0,0,-4.6456,-4.646,-4.647,-4.6466,-4.6462,-4.6457,-4.6482,-4.6507,-4.6415,-4.6431,-4.6405,-4.6401,-4.6425,-4.6427,-4.6434,-4.6505,-4.6505,-4.6421,-4.6423,-4.6424,-4.6425,0,0,0,0,0,0,0,-4.6455,-4.6459,-4.6509,-4.647,-4.6465,-4.6444,-4.6442,-4.6487,-4.6449,-4.6429,-4.6422,-4.6423,-4.6422,-4.6431,-4.6434,-4.6505,-4.6421,-4.6424,-4.6426,-4.6427,-4.6658,-4.6662,0,0,0,0,0,0,-4.646,-4.6459,-4.651,-4.6509,-4.645,-4.6448,-4.6446,-4.6462,-4.6448,-4.6443,-4.6426,-4.6419,-4.6427,-4.643,-4.6433,-4.6546,-4.6424,-4.6428,-4.643,-4.6654,-4.6659,-4.6663,0,0,0,0,0,0,-4.6459,-4.6465,-4.651,-4.6482,-4.6486,-4.6453,-4.6472,-4.6464,-4.6473,-4.6446,-4.6439,-4.6442,-4.6424,-4.6428,-4.6489,-4.6545,-4.6429,-4.6432,-4.6649,-4.6656,-4.6661,-4.6771,0,0,0,0,0,0,-4.6457,-4.6465,-4.65,-4.6484,-4.6488,-4.6564,-4.6475,-4.6467,-4.6479,-4.6469,-4.6459,-4.6454,-4.6422,-4.6484,-4.6492,-4.6547,-4.6435,-4.6644,-4.6652,-4.6659,-4.6763,-4.6781,-4.6796,0,0,0,0,0,-4.6455,-4.653,-4.6502,-4.6508,-4.653,-4.6567,-4.657,-4.6531,-4.6483,-4.6519,-4.6502,-4.6454,-4.6538,-4.6491,-4.6499,-4.6556,-4.664,-4.665,-4.6659,-4.6755,-4.6777,-4.6795,0,0,0,0,0,0,-4.6553,-4.6527,-4.6495,-4.6568,-4.6571,-4.6551,-4.6594,-4.6555,-4.6571,-4.6561,-4.6513,-4.6512,-4.6581,-4.6574,-4.6523,-4.665,-4.6581,-4.6592,-4.6651,-4.6672,-4.6688,-4.6688,-4.6438,0,0,0,0,0,-4.6583,-4.6615,-4.6591,-4.6657,-4.666,-4.6628,-4.6642,-4.6612,-4.6613,-4.6614,-4.6602,-4.6606,-4.6633,-4.6652,-4.6675,-4.6762,-4.676,-4.6805,-4.6822,-4.6836,-4.6846,-4.6895,-4.6916,-4.6694,-4.6694,-4.6693,0,0,-4.6646,-4.6636,-4.6658,-4.6677,-4.6675,-4.6711,-4.6629,-4.6668,-4.6695,-4.662,-4.6677,-4.6669,-4.667,-4.6745,-4.6777,-4.6742,-4.6908,-4.6847,-4.6859,-4.6862,-4.6907,-4.6928,-4.6946,-4.67,-4.6699,-4.6698,0,0,-4.6778,-4.6773,-4.6829,-4.683,-4.6829,-4.6807,-4.6822,-4.6809,-4.6801,-4.6857,-4.6803,-4.6834,-4.6881,-4.6886,-4.6894,-4.7034,-4.6991,-4.7043,-4.7129,-4.7178,-4.7195,-4.721,-4.7263,-4.7281,-4.7053,-4.7053,-4.7054,0,-4.6856,-4.6906,-4.6863,-4.6907,-4.6919,-4.6853,-4.6912,-4.6915,-4.6922,-4.6933,-4.6893,-4.6953,-4.695,-4.7026,-4.7061,-4.7069,-4.7085,-4.7043,-4.7196,-4.7211,-4.7225,-4.7274,-4.7293,-4.706,-4.7059,-4.7058,-4.7058,0,-4.7003,-4.7039,-4.7085,-4.7094,-4.7111,-4.7162,-4.7129,-4.7151,-4.7121,-4.7105,-4.7165,-4.7159,-4.7181,-4.7197,-4.7168,-4.7271,-4.725,-4.7204,-4.7133,-4.7253,-4.7298,-4.7317,-4.7069,-4.7067,-4.7065,-4.7063,0,0,-4.7194,-4.7182,-4.72,-4.7205,-4.7202,-4.7229,-4.728,-4.7302,-4.7323,-4.7332,-4.7374,-4.7418,-4.7376,-4.7386,-4.7357,-4.74,-4.7514,-4.7349,-4.7348,-4.7381,-4.7631,-4.7666,-4.7689,-4.7486,-4.7489,-4.7492,-4.7632,0,-4.7324,-4.7407,-4.7372,-4.746,-4.7494,-4.7435,-4.7479,-4.7483,-4.747,-4.7499,-4.7485,-4.7518,-4.7459,-4.7466,-4.7505,-4.7492,-4.7564,-4.7481,-4.7527,-4.7529,-4.7529,-4.7712,-4.7748,-4.788,-4.7649,-4.7652,-4.7654,0,-4.7485,-4.7501,-4.7593,-4.7587,-4.76,-4.764,-4.766,-4.7687,-4.7692,-4.768,-4.7694,-4.7657,-4.7708,-4.7638,-4.771,-4.7655,-4.7672,-4.7669,-4.7673,-4.7677,-4.7599,-4.7722,-4.7921,-4.7942,-4.7681,-4.7679,-4.7677,0,-4.7618,-4.7663,-4.7725,-4.7731,-4.7724,-4.7755,-4.7754,-4.7755,-4.7772,-4.779,-4.7801,-4.7825,-4.7839,-4.7859,-4.7831,-4.7782,-4.7908,-4.7835,-4.7901,-4.7903,-4.793,-4.7929,-4.8137,-4.794,-4.794,-4.7939,-4.7939,0,-4.7767,-4.7826,-4.7785,-4.7823,-4.7888,-4.7849,-4.7915,-4.7908,-4.791,-4.7948,-4.7898,-4.7934,-4.7894,-4.7928,-4.7906,-4.7971,-4.7977,-4.797,-4.7964,-4.7975,-4.7976,-4.7986,-4.7976,-4.7945,-4.7944,-4.7942,-4.7942,0,-4.7926,-4.7901,-4.7964,-4.7955,-4.7954,-4.8003,-4.7995,-4.8031,-4.8016,-4.8064,-4.8073,-4.805,-4.8087,-4.8061,-4.8098,-4.8084,-4.8169,-4.8149,-4.8168,-4.8163,-4.8231,-4.8226,-4.8453,-4.8482,-4.8266,-4.8268,-4.827,0,-4.8023,-4.8067,-4.8063,-4.8084,-4.8087,-4.8122,-4.8139,-4.8104,-4.8125,-4.8136,-4.8172,-4.8205,-4.8229,-4.8292,-4.828,-4.8309,-4.829,-4.8368,-4.8294,-4.8306,-4.8294,-4.8292,-4.8298,-4.8383,-4.8386,-4.8388,-4.8389,0,-4.8198,-4.8185,-4.8211,-4.8236,-4.8259,-4.8276,-4.8289,-4.831,-4.8274,-4.8301,-4.8339,-4.8358,-4.8397,-4.8432,-4.8457,-4.8458,-4.8419,-4.8413,-4.843,-4.8443,-4.8452,-4.845,-4.821,-4.8408,-4.8406,-4.8405,-4.8404,-4.8403,-4.833,-4.8368,-4.8372,-4.8405,-4.8412,-4.8427,-4.8461,-4.8451,-4.8482,-4.8511,-4.8488,-4.8534,-4.8542,-4.8572,-4.8578,-4.8615,-4.8584,-4.8608,-4.8614,-4.8621,-4.8632,-4.8446,-4.8619,-4.8619,-4.8618,-4.8618,-4.8618,0,-4.8504,-4.8505,-4.8536,-4.8557,-4.8584,-4.8545,-4.856,-4.8585,-4.8626,-4.8636,-4.8662,-4.8708,-4.8742,-4.8734,-4.8766,-4.8797,-4.8781,-4.8807,-4.8805,-4.8806,-4.8657,-4.864,-4.882,-4.882,-4.882,-4.882,-4.882,-4.882,-4.8598,-4.8661,-4.8649,-4.8717,-4.8717,-4.8761,-4.8773,-4.8788,-4.8796,-4.8849,-4.8877,-4.8872,-4.8876,-4.8908,-4.8939,-4.8936,-4.8951,-4.8984,-4.8975,-4.8836,-4.8816,-4.8797,-4.8781,-4.8987,-4.8987,-4.9121,-4.9122,-4.9123]},{"header":{"parameterUnit":"m.s-1","parameterCategory":1,"la1":30.2991,"la2":30.254,"lo1":-89.0895,"lo2":-89.0444,"dy":0.0017,"dx":0.0017,"nx":28,"ny":28,"refTime":"2024-10-05T21:00:00:Z","depth":0,"parameterNumber":3,"parameterNumberName":"V-component_of_WINDS"},"data":[0,0,0,0,0,0,0,0,0,0,0,0,0,0,0,0,0,0,0,0,0,0,0,0,0,0,0,0,0,0,0,0,0,0,0,0,0,0,0,0,0,0,0,0,0,0,0,0,0,0,0,0,0,0,0,0,0,0,-0.2065,-0.2065,0,-0.2101,-0.2101,-0.2102,-0.2066,-0.2065,-0.2064,-0.2062,-0.2106,-0.2108,-0.211,0,0,0,0,0,0,0,0,0,0,0,0,0,-0.1972,-0.1974,-0.2065,-0.2065,-0.2066,-0.2101,-0.2101,-0.2102,-0.2067,-0.2065,-0.2063,-0.2062,-0.2105,-0.2108,-0.2111,0,0,0,0,0,0,0,0,0,0,0,0,0,-0.2011,-0.1975,-0.2065,-0.2052,-0.2051,-0.21,-0.2101,-0.2102,-0.2067,-0.2065,-0.2063,-0.2061,-0.2104,-0.2107,-0.2111,-0.2176,0,0,-0.2122,-0.2124,0,0,0,0,0,0,0,0,-0.2009,-0.2014,-0.2054,-0.2053,-0.2052,-0.2077,-0.2084,-0.2127,-0.2067,-0.2061,-0.2062,-0.206,-0.2098,-0.2102,-0.2114,-0.2178,-0.218,-0.2123,-0.2125,-0.2127,-0.2128,0,0,0,0,0,0,0,-0.2006,-0.2013,-0.2079,-0.2054,-0.2054,-0.2047,-0.205,-0.2092,-0.2091,-0.2062,-0.2059,-0.2064,-0.2098,-0.211,-0.2115,-0.2181,-0.2123,-0.2126,-0.2128,-0.213,-0.2302,-0.2305,0,0,0,0,0,0,-0.2004,-0.2011,-0.2078,-0.208,-0.2025,-0.205,-0.2054,-0.2071,-0.2091,-0.2092,-0.2065,-0.2062,-0.2105,-0.211,-0.2116,-0.2196,-0.2127,-0.213,-0.2132,-0.23,-0.2303,-0.2306,0,0,0,0,0,0,-0.2002,-0.201,-0.2077,-0.2045,-0.2053,-0.2054,-0.2074,-0.2073,-0.2086,-0.2093,-0.2094,-0.2078,-0.2104,-0.2111,-0.2161,-0.2197,-0.2132,-0.2135,-0.2297,-0.2301,-0.2304,-0.2354,0,0,0,0,0,0,-0.1999,-0.201,-0.2033,-0.2045,-0.2054,-0.212,-0.2076,-0.2075,-0.2091,-0.2087,-0.2106,-0.2107,-0.2102,-0.2156,-0.2165,-0.22,-0.2138,-0.2294,-0.2299,-0.2303,-0.2349,-0.2359,-0.2367,0,0,0,0,0,-0.1996,-0.2047,-0.2035,-0.2043,-0.2083,-0.2122,-0.2127,-0.212,-0.2094,-0.2119,-0.2124,-0.2106,-0.219,-0.2162,-0.2171,-0.2208,-0.2292,-0.2298,-0.2303,-0.2345,-0.2357,-0.2367,0,0,0,0,0,0,-0.2041,-0.2048,-0.2035,-0.209,-0.2106,-0.2116,-0.2147,-0.2132,-0.2156,-0.2152,-0.2142,-0.2147,-0.2201,-0.2209,-0.2177,-0.2273,-0.2237,-0.2245,-0.2267,-0.2278,-0.2286,-0.2285,-0.2141,0,0,0,0,0,-0.2057,-0.2086,-0.2091,-0.214,-0.2148,-0.2146,-0.2162,-0.2155,-0.2171,-0.2178,-0.2187,-0.2205,-0.2236,-0.2257,-0.2285,-0.2349,-0.2354,-0.2379,-0.2388,-0.2395,-0.2403,-0.244,-0.2452,-0.2323,-0.2323,-0.2323,0,0,-0.2091,-0.2099,-0.2118,-0.2149,-0.216,-0.2192,-0.2152,-0.2187,-0.2212,-0.2184,-0.2233,-0.224,-0.226,-0.2318,-0.2344,-0.2326,-0.2439,-0.2402,-0.2408,-0.2412,-0.2447,-0.2459,-0.247,-0.2327,-0.2326,-0.2325,0,0,-0.2171,-0.2178,-0.222,-0.2231,-0.2247,-0.2246,-0.2256,-0.2268,-0.2271,-0.2319,-0.2299,-0.2329,-0.2381,-0.2397,-0.2412,-0.2496,-0.2481,-0.2505,-0.2553,-0.2589,-0.2599,-0.2608,-0.2641,-0.2653,-0.2512,-0.2512,-0.2512,0,-0.2212,-0.2258,-0.2244,-0.2281,-0.2297,-0.227,-0.2314,-0.2326,-0.2352,-0.2364,-0.2343,-0.2409,-0.242,-0.2483,-0.2503,-0.2515,-0.2528,-0.2505,-0.2598,-0.2607,-0.2615,-0.2647,-0.2659,-0.2515,-0.2515,-0.2515,-0.2514,0,-0.231,-0.2342,-0.2374,-0.2397,-0.2416,-0.2456,-0.2451,-0.2471,-0.2462,-0.2463,-0.2513,-0.2525,-0.2556,-0.257,-0.2561,-0.2632,-0.2621,-0.2599,-0.2563,-0.2631,-0.2661,-0.2672,-0.252,-0.2518,-0.2518,-0.2517,0,0,-0.2422,-0.2435,-0.2448,-0.2459,-0.2474,-0.25,-0.2539,-0.2567,-0.2587,-0.2605,-0.264,-0.2684,-0.2664,-0.2681,-0.2673,-0.2704,-0.2774,-0.2679,-0.268,-0.2699,-0.2856,-0.2875,-0.2889,-0.2762,-0.2764,-0.2766,-0.2855,0,-0.2504,-0.2571,-0.2559,-0.2626,-0.2657,-0.2631,-0.2666,-0.268,-0.2682,-0.271,-0.2712,-0.2745,-0.2714,-0.2725,-0.2754,-0.2759,-0.2806,-0.2752,-0.2799,-0.2801,-0.2798,-0.2903,-0.2924,-0.3007,-0.2866,-0.2868,-0.2869,0,-0.261,-0.263,-0.2699,-0.271,-0.2722,-0.2754,-0.2779,-0.2805,-0.2821,-0.282,-0.2838,-0.2825,-0.2867,-0.2828,-0.2887,-0.2851,-0.2869,-0.2875,-0.2878,-0.2885,-0.2842,-0.2917,-0.3033,-0.3047,-0.2887,-0.2885,-0.2884,0,-0.2689,-0.2733,-0.278,-0.279,-0.2803,-0.2826,-0.2833,-0.2846,-0.2864,-0.2887,-0.2899,-0.2927,-0.2943,-0.2966,-0.2961,-0.2932,-0.3023,-0.2983,-0.3027,-0.3027,-0.305,-0.305,-0.3174,-0.3055,-0.3055,-0.3055,-0.3055,0,-0.2784,-0.2828,-0.2816,-0.2846,-0.2895,-0.2881,-0.2931,-0.2934,-0.2947,-0.2978,-0.2957,-0.2988,-0.2978,-0.3009,-0.3005,-0.3057,-0.3064,-0.3066,-0.3066,-0.3071,-0.3071,-0.3085,-0.3081,-0.3058,-0.3058,-0.3057,-0.3056,0,-0.2882,-0.2875,-0.2926,-0.2933,-0.2936,-0.2972,-0.2979,-0.3008,-0.3007,-0.3048,-0.3056,-0.3056,-0.3091,-0.3087,-0.3127,-0.3125,-0.319,-0.318,-0.3184,-0.3183,-0.3229,-0.3226,-0.337,-0.339,-0.3255,-0.3256,-0.3257,0,-0.2945,-0.2979,-0.2989,-0.3007,-0.3015,-0.3046,-0.3063,-0.3051,-0.3071,-0.3091,-0.3119,-0.3151,-0.3177,-0.3234,-0.3239,-0.327,-0.3263,-0.3311,-0.3268,-0.3272,-0.3268,-0.3268,-0.3273,-0.3322,-0.3323,-0.3324,-0.3325,0,-0.306,-0.3054,-0.3079,-0.3104,-0.3125,-0.3144,-0.3161,-0.3178,-0.3168,-0.3191,-0.3226,-0.3245,-0.3285,-0.3319,-0.3347,-0.3357,-0.3341,-0.3338,-0.3351,-0.3358,-0.336,-0.3363,-0.3212,-0.3336,-0.3335,-0.3334,-0.3334,-0.3333,-0.3145,-0.3174,-0.3186,-0.3215,-0.3226,-0.3242,-0.327,-0.3271,-0.3299,-0.3329,-0.332,-0.336,-0.3376,-0.3413,-0.3425,-0.3457,-0.344,-0.3457,-0.3463,-0.3468,-0.3475,-0.3351,-0.3462,-0.3462,-0.3461,-0.3461,-0.3461,0,-0.3261,-0.3267,-0.3293,-0.3317,-0.3341,-0.3319,-0.3337,-0.3359,-0.3394,-0.3409,-0.3434,-0.3475,-0.3507,-0.3513,-0.3544,-0.3569,-0.3563,-0.3579,-0.3579,-0.3582,-0.3487,-0.3474,-0.3583,-0.3583,-0.3583,-0.3583,-0.3583,-0.3583,-0.3325,-0.3373,-0.3369,-0.3423,-0.3429,-0.3466,-0.3479,-0.3495,-0.3507,-0.3552,-0.3578,-0.3581,-0.3593,-0.3625,-0.3655,-0.3656,-0.367,-0.3689,-0.3688,-0.36,-0.3588,-0.3577,-0.3565,-0.3692,-0.3692,-0.3781,-0.3782,-0.3783]}]]